User: anonymous   Login
Location: *
(51.5000°N, 0.1100°W)
Time: 18:08:37
(UTC+00:00)
Language:

Cosmos 1455 Rocket - Orbit

View from above orbital plane
View from above orbital plane
View from above satellite
View from above satellite

Ground track
Ground track

The orbit data is extracted from the following two-line orbital elements,

1 14033U 83037B   24205.13796852  .00001041  00000-0  11893-3 0  9997
2 14033  82.5052  71.7730 0016815 195.0906 164.9811 14.85038459864163
Epoch (UTC): 23 July 2024 03:18:40
Eccentricity: 0.0016815
inclination: 82.5052°
perigee height: 602 km
apogee height: 625 km
right ascension of ascending node: 71.7730°
argument of perigee: 195.0906°
revolutions per day: 14.85038459
mean anomaly at epoch: 164.9811°
orbit number at epoch: 86416

The dashed part of the orbit path shows where the satellite is in the earth's shadow,  

DLR